User: anonymous   Login
Location: Boussy-Saint-Antoine
(48.6830°N, 2.5330°E)
Time: 18:29:50
(UTC+02:00)
Language:

CUTE-I - Orbit

View from above orbital plane
View from above orbital plane
View from above satellite
View from above satellite

Ground track
Ground track

The orbit data is extracted from the following two-line orbital elements,

1 27844U 03031E   19198.49816442  .00000024  00000-0  30445-4 0  9994
2 27844  98.6833 206.2804 0008887 313.2892  46.7543 14.22185501832387
Epoch (UTC): 17 July 2019 11:57:21
Eccentricity: 0.0008887
inclination: 98.6833°
perigee height: 811 km
apogee height: 824 km
right ascension of ascending node: 206.2804°
argument of perigee: 313.2892°
revolutions per day: 14.22185501
mean anomaly at epoch: 46.7543°
orbit number at epoch: 83238

The dashed part of the orbit path shows where the satellite is in the earth's shadow,  

DLR